{"data":{"norad_id":44883,"intl_designator":"2019-093E","name":"CBERS 4A","alt_names":[],"object_type":"PAYLOAD","status":"ACTIVE","operator":null,"country":"CHBZ","launch_date":"2019-12-20","launch_site_code":"TAISC","launch_vehicle":null,"mission":null,"orbit_class":"UNKNOWN","rcs_meters":null,"size_class":null,"mass_kg":null,"dimensions":null,"purposes":[],"wikipedia_slug":null,"has_3d_model":false,"image_url":null,"decayed_at":null,"tle_current":{"epoch":"2026-05-25T04:40:57.178272Z","epoch_age_seconds":57526,"freshness":"FRESH","line1":"1 44883U 19093E   26145.19510623  .00000198  00000+0  31603-4 0  9998","line2":"2 44883  97.7499 213.1692 0000352 211.5512 148.5680 14.81610040347679","mean_motion":14.8161004,"eccentricity":3.52e-5,"inclination_deg":97.7499,"raan_deg":213.1692,"arg_perigee_deg":211.5512,"mean_anomaly_deg":148.568,"bstar":3.1603e-5,"rev_number":34767,"period_min":97.191566007477,"perigee_km":624.00013977303,"apogee_km":624.49310758014,"semimajor_km":7002.3836236766,"source":"CELESTRAK","updated_at":"2026-05-25T13:37:56.039264Z"}}}